Huntington, WV

10:23 PM EST on November 16, 2019 (GMT -0500)
Tri-State / Ferguson

Weather History for KHTS - October, 2019

Change the Weather History Date:

Monday, October 14, 2019

  Actual Average Record
Temperature  
Mean Temperature 57 °F 57 °F  
Max Temperature 71 °F 69 °F 89 °F (1954)
Min Temperature 42 °F 46 °F 25 °F (1988)
Degree Days  
Heating Degree Days 8 8  
Month to date heating degree days 45 95  
Since 1 July heating degree days 45 153  
Cooling Degree Days 0 1  
Month to date cooling degree days 65 16  
Year to date cooling degree days 1510 1127  
Growing Degree Days 6 (Base 50)    
Moisture  
Dew Point 40 °F    
Average Humidity 61    
Maximum Humidity 93    
Minimum Humidity 28    
Precipitation  
Precipitation 0.00 in 0.09 in 1.00 in (2014)
Month to date precipitation 2.78 1.23  
Year to date precipitation 37.25 34.26  
Snow  
Snow 0.00 in 0.00 in 0.00 in (2016)
Month to date snowfall 0.0  
Since 1 September snowfall 0.0  
Snow Depth -    
Sea Level Pressure  
Sea Level Pressure 30.07 in    
Wind  
Wind Speed 6 mph (SW)    
Max Wind Speed 13 mph    
Max Gust Speed 17 mph    
Visibility 10 miles    
Events      
T = Trace of Precipitation, MM = Missing Value Source: NWS Daily Summary

Daily Weather History Graph

Daily Weather History Graph

Search for Another Location

Airport or City:

Astronomy

Oct. 14, 2019 Rise Set
Actual Time 7:37 AM EDT 6:53 PM EDT
Civil Twilight 7:11 AM EDT 7:20 PM EDT
Nautical Twilight 6:40 AM EDT 7:51 PM EDT
Astronomical Twilight 6:10 AM EDT 8:21 PM EDT
Moon 7:43 PM EDT (10/14) 8:08 AM EDT (10/14)
Length of Visible Light 12h 09m
Length of Day
11h 15m
Waxing Gibbous, 99% of the Moon is Illuminated
Oct 14
Waxing Gibbous
Oct 21
Last Quarter
Oct 27
New
Nov 4
First Quarter
Nov 12
Full

Hourly Weather History & Observations

Time (EDT) Temp. Windchill Dew Point Humidity Pressure Visibility Wind Dir Wind Speed Gust Speed Precip Events Conditions
12:51 AM 46.0 °F 43.9 °F 44.1 °F 93% 30.01 in 10.0 mi SSW 4.6 mph - N/A   Clear
1:51 AM 45.0 °F 42.6 °F 42.1 °F 90% 30.01 in 10.0 mi SSW 4.6 mph - N/A   Clear
2:51 AM 46.0 °F 44.8 °F 39.9 °F 79% 30.01 in 10.0 mi South 3.5 mph - N/A   Clear
3:51 AM 45.0 °F - 39.9 °F 82% 30.01 in 10.0 mi Calm Calm - N/A   Clear
4:51 AM 44.1 °F 41.5 °F 39.9 °F 85% 30.03 in 10.0 mi SSW 4.6 mph - N/A   Clear
5:51 AM 43.0 °F 41.3 °F 39.0 °F 86% 30.04 in 10.0 mi South 3.5 mph - N/A   Clear
6:51 AM 42.1 °F 40.2 °F 37.9 °F 85% 30.06 in 10.0 mi SSW 3.5 mph - N/A   Clear
7:51 AM 42.1 °F 39.2 °F 37.9 °F 85% 30.07 in 10.0 mi South 4.6 mph - N/A   Clear
8:51 AM 46.9 °F - 39.9 °F 77% 30.09 in 10.0 mi SSW 4.6 mph - N/A   Clear
9:51 AM 52.0 °F - 41.0 °F 66% 30.12 in 10.0 mi SSW 6.9 mph - N/A   Clear
10:51 AM 59.0 °F - 42.1 °F 53% 30.12 in 10.0 mi WSW 8.1 mph - N/A   Clear
11:51 AM 63.0 °F - 42.1 °F 46% 30.11 in 10.0 mi SW 6.9 mph - N/A   Clear
12:51 PM 64.9 °F - 41.0 °F 42% 30.10 in 10.0 mi Variable 4.6 mph - N/A   Clear
1:51 PM 68.0 °F - 39.9 °F 36% 30.08 in 10.0 mi WSW 11.5 mph 16.1 mph N/A   Clear
2:51 PM 70.0 °F - 39.9 °F 33% 30.06 in 10.0 mi Variable 4.6 mph - N/A   Clear
3:51 PM 70.0 °F - 36.0 °F 29% 30.06 in 10.0 mi SW 8.1 mph - N/A   Clear
4:51 PM 70.0 °F - 37.0 °F 30% 30.05 in 10.0 mi West 10.4 mph - N/A   Clear
5:51 PM 68.0 °F - 37.0 °F 32% 30.06 in 10.0 mi West 6.9 mph 16.1 mph N/A   Clear
6:51 PM 64.0 °F - 37.9 °F 38% 30.07 in 10.0 mi West 4.6 mph - N/A   Clear
7:51 PM 62.1 °F - 39.0 °F 43% 30.09 in 10.0 mi Calm Calm - N/A   Clear
8:51 PM 57.0 °F - 41.0 °F 55% 30.09 in 10.0 mi SW 3.5 mph - N/A   Clear
9:51 PM 52.0 °F - 43.0 °F 71% 30.11 in 10.0 mi Calm Calm - N/A   Clear
10:51 PM 48.9 °F - 42.1 °F 77% 30.10 in 10.0 mi East 4.6 mph - N/A   Clear
11:51 PM 48.9 °F - 43.0 °F 80% 30.12 in 10.0 mi Calm Calm - N/A   Clear